Regional Weather Roundup
Issued by NWS Jackson, KY

Home | Current Version | Previous Version | Graphics & Text | Print | Product List | Glossary On
Versions: 1 2 3 4 5 6 7 8 9 10 11 12 13 14 15 16 17 18 19 20 21 22 23 24 25 26 27 28 29 30 31 32 33 34 35 36 37 38 39 40 41 42 43 44 45 46 47 48 49 50
000
ASUS43 KJKL 010119
RWRJKL

EAST KENTUCKY HOURLY WEATHER ROUNDUP
NATIONAL WEATHER SERVICE JACKSON KY
900 PM EDT THU JUL 31 2014

NOTE: "FAIR" INDICATES FEW OR NO CLOUDS BELOW 12,000 FEET WITH
NO SIGNIFICANT WEATHER AND/OR OBSTRUCTIONS TO VISIBILITY.

* THESE REPORTS ARE NOT UNDER NWS QUALITY CONTROL AND MAY NOT
  REPORT WEATHER SUCH AS PRECIPITATION AND FOG.

KYZ079-080-083-085-087-088-110-112-115-119-120-010200
...EASTERN KENTUCKY...

CITY           SKY/WX    TMP DP  RH WIND       PRES   REMARKS
JACKSON        PTCLDY    73  55  53 CALM      30.11S
LONDON         PTCLDY    74  60  61 CALM      30.10F
SOMERSET*      PTCLDY    72  59  64 CALM      30.10S
MONTICELLO*    MOCLDY    68  65  90 CALM      30.10F
MIDDLESBORO*   PTCLDY    71  64  78 CALM      30.11R
HARLAN APT*      N/A     68  61  77 MISG      30.12S
HAZARD APT*    CLEAR     70  63  78 CALM      30.11
PIKEVILLE APT* CLEAR     73  59  60 NE3       30.12R
BIG SANDY*     CLEAR     71  60  67 CALM      30.11S
MOREHEAD APT*    N/A     72  61  68 CALM      30.12S
ASHLAND*       CLEAR     68  61  77 CALM      30.07S
$$

KYZ035-036-041-042-044-050-067-078-099-010200
...CENTRAL KENTUCKY...

CITY           SKY/WX    TMP DP  RH WIND       PRES   REMARKS
MT STERLING*   PTCLDY    72  61  68 CALM      30.10F
FLEMING/MASON* PTCLDY    74  58  56 S5        30.10S
DANVILLE*      MOCLDY    70  61  73 CALM      30.10S
RICHMOND*      MOCLDY    75  55  50 CALM      30.09S
LEXINGTON      PTCLDY    76  60  57 CALM      30.09S
FRANKFORT      PTCLDY    71  61  70 CALM      30.07S
$$

KYZ091>093-OHZ055-061-077-WVZ005-015-034-035-042-010200
...SOUTHERN OHIO/WEST VIRGINIA...

CITY           SKY/WX    TMP DP  RH WIND       PRES   REMARKS
COVINGTON      MOCLDY    73  60  63 CALM      30.08S
COLUMBUS         N/A     78  59  51 S3        30.08R
DAYTON           N/A     74  59  59 SW3       30.09S
WILMINGTON     CLOUDY    71  61  70 CALM      30.09R
HUNTINGTON       N/A     71  62  73 E3        30.08S
CHARLESTON       N/A     72  65  78 CALM      30.09S
PINEVILLE*       N/A     68  65  89 MISG      30.20R
BECKLEY          N/A     69  58  67 SE12      30.19R
BLUEFIELD      MOCLDY    65  60  84 CALM      30.21S
$$

VAZ002-007-008-TNZ017-027-036-066-071-010200
...SOUTHWEST VIRGINIA/EAST TENNESSEE...

CITY           SKY/WX    TMP DP  RH WIND       PRES   REMARKS
WISE*            N/A     68  55  64 S7        30.19R
JONESVILLE*      N/A     73  63  68 CALM      30.14R
ABINGDON*        N/A     70  61  73 CALM      30.17S
BRISTOL        MOCLDY    73  58  59 CALM      30.14S
KNOXVILLE      CLOUDY    74  64  71 SE6       30.07S
OAK RIDGE        N/A     76  64  66 CALM      30.09S
CROSSVILLE     MOCLDY    72  62  71 CALM      30.12S
NASHVILLE      MOCLDY    78  58  49 SW3       30.06S
$$

...KEY TO REMARKS...
VSB - VISIBILITY IN MILES
WCI - WIND CHILL INDEX
HX  - HEAT INDEX

$$



USA.gov is the U.S. government's official web portal to all federal, state and local government web resources and services.